Home   Weather   Kahramanmaraş   Past weeks
Flag for Turkey

Past Weather in Kahramanmaraş, Turkey — Yesterday and Last 2 Weeks

Now
90 °F

Scattered clouds.


Feels Like: 88 °F
Forecast: 93 / 61 °F
Wind: 16 mph from Northwest

Location: Kahramanmaraş

Current Time: Jul 16, 2019 at 3:48:30 pm

Latest Report: Jul 16, 2019 at 2:50 pm


Visibility: N/A

Pressure: 29.68 "Hg (27.89 "Hg at 556m altitude)

Humidity: 31%

Dew Point: 55 °F

Location of KahramanmaraşLocation

Past Weather in Kahramanmaraş — Graph

°F

Kahramanmaraş Temperature Yesterday

Maximum temperature yesterday: 84 °F (at 1:50 pm)
Minimum temperature yesterday: 72 °F (at 3:50 am)
Average temperature yesterday: 76 °F

High & Low Weather Summary for the Past Weeks

 TemperatureHumidityPressure
High99 °F (Jul 4, 12:50 pm)88% (Jul 4, 4:50 am)29.83 "Hg (Jul 4, 4:50 am)
Low63 °F (Jul 2, 4:50 am)13% (Jul 2, 3:50 pm)29.56 "Hg (Jul 11, 1:50 pm)
Average82 °F51%29.71 "Hg
* Reported Jul 1 1:50 pm — Jul 16 1:50 pm, Kahramanmaraş. Weather by CustomWeather, © 2019

Note: Actual official high and low records may vary slightly from our data, if they occured in-between our weather recording intervals... More about our weather records

Advertising

Kahramanmaraş Weather History for the Previous 24 Hours

Scroll right to see more
 ConditionsComfort  
Time TempWeatherWind HumidityBarometerVisibility
1:50 pm
Tue, Jul 16
88 °FPassing clouds.13 mph29%29.68 "HgN/A
12:50 pm90 °FPassing clouds.13 mph27%29.71 "HgN/A
11:50 am88 °FPassing clouds.12 mph29%29.74 "HgN/A
10:50 am84 °FSunny.13 mph35%29.74 "Hg10 mi
9:50 am81 °FSunny.14 mph45%29.74 "Hg10 mi
8:50 am77 °FSunny.16 mph54%29.74 "Hg10 mi
7:50 am75 °FPassing clouds.13 mph57%29.74 "HgN/A
6:50 am72 °FPassing clouds.8 mph69%29.77 "HgN/A
5:50 am68 °FSunny.13 mph78%29.74 "Hg10 mi
4:50 am70 °FPassing clouds.14 mph73%29.71 "HgN/A
3:50 am72 °FPassing clouds.14 mph69%29.74 "HgN/A
2:50 am72 °FPassing clouds.17 mph73%29.74 "HgN/A
1:50 am72 °FPassing clouds.14 mph73%29.74 "HgN/A
12:50 am73 °FPassing clouds.17 mph69%29.74 "HgN/A
11:50 pm
Mon, Jul 15
73 °FPassing clouds.17 mph69%29.74 "HgN/A
10:50 pm73 °FPassing clouds.16 mph69%29.74 "HgN/A
9:50 pm72 °FPassing clouds.10 mph73%29.74 "HgN/A
8:50 pm72 °FPartly cloudy.13 mph78%29.74 "HgN/A
8:40 pm72 °FPartly cloudy.10 mph78%29.74 "HgN/A
7:50 pm73 °FSprinkles. Broken clouds.12 mph69%29.74 "HgN/A
7:30 pm73 °FSprinkles. Partly sunny.8 mph69%29.74 "HgN/A
6:50 pm77 °FPartly sunny.18 mph57%29.74 "HgN/A
5:50 pm77 °FPartly sunny.16 mph61%29.71 "HgN/A
4:50 pm79 °FScattered clouds.17 mph51%29.71 "HgN/A
3:50 pm84 °FBroken clouds.12 mph43%29.68 "HgN/A
Weather by CustomWeather, © 2019

See weather overview

LIVE PARTIAL LUNAR ECLIPSE – Watch the eclipse as it happens